www.pogodaiklimat.ru

Погода и климат >> Архив погоды >> Португалия >> Бежа


ПОГОДА в Беже

  • Прогноз погоды в Беже
  • Монитор погоды в Беже

АРХИВ ПОГОДЫ в Беже

Время (UTC), дата Ветер
(напр.,м/с)
 
Видим.   Явления Облачность Т
(С)
Тd
(С)
f
(%)
Тe
(С)
Тes
(С)
Комфортность P
(гПа)
Po
(гПа)
Тmin
(С)
Tmax
(С)
R
(мм)
R24
(мм)
S
(см)
17 13.09 СВ 7 н/о н/о +26.1 +11.3 40 +27 +27 жарко 1017.8 989.8
18 13.09 СВ 5 н/о н/о +25.1 +10.5 40 +26 +26 жарко 1017.8 989.7 +29.6
19 13.09 В 4 н/о н/о +23.4 +10.9 45 +26 +26 жарко 1018.5 990.2
21 13.09 СВ 2 н/о н/о +21.2 +11.9 55 +23 +23 комфорт 1019.7 991.2
22 13.09 В 3 н/о н/о +20.6 +12.3 59 +23 +23 комфорт 1019.4 990.9
23 13.09 В 2 н/о н/о +20.1 +12.6 62 +23 +23 комфорт 1019.6 990.9
00 14.09 В 2 н/о н/о +19.6 +12.1 62 +22 +22 комфорт 1019.5 990.8
01 14.09 В 2 н/о н/о +19.6 +11.7 60 +22 +22 комфорт 1019.6 990.9
02 14.09 В 2 н/о н/о +18.5 +11.6 64 +20 +20 1018.8 990.1
03 14.09 В 2 н/о н/о +17.9 +11.8 67 +18 +18 1018.7 989.9
04 14.09 В 1 н/о н/о +17.2 +12.8 75 +18 +18 1018.8 990.0
05 14.09 В 2 н/о н/о +17.4 +12.9 75 +18 +18 1018.7 989.9
06 14.09 В 2 н/о н/о +17.2 +12.7 75 +18 +18 1018.9 990.0 +17.1
07 14.09 СВ 2 н/о н/о +17.6 +12.9 74 +18 +18 1019.0 990.2
08 14.09 В 3 н/о н/о +20.0 +13.2 65 +22 +22 комфорт 1019.1 990.5
09 14.09 В 3 н/о н/о +23.1 +13.1 53 +26 +26 жарко 1018.7 990.4
10 14.09 В 4 н/о н/о +25.2 +13.3 48 +27 +27 жарко 1018.4 990.3
11 14.09 В 3 н/о н/о +26.4 +13.2 44 +28 +28 жарко 1018.0 990.1
12 14.09 В 3 н/о н/о +28.2 +13.5 40 +30 +30 жарко 1017.3 989.5
13 14.09 СВ 3 н/о н/о +29.2 +12.9 37 +31 +31 жарко 1016.5 988.8
14 14.09 В 2 н/о н/о +30.7 +13.0 34 +32 +32 жарко 1015.6 988.1
15 14.09 В 6 н/о н/о +28.3 +12.8 38 +30 +30 жарко 1015.5 987.8
16 14.09 ЮВ 2 н/о н/о +25.7 +15.6 54 +29 +29 душно 1016.1 988.1 0.9
17 14.09 В 4 н/о н/о +26.1 +13.7 46 +28 +28 жарко 1016.6 988.6
18 14.09 В 2 н/о н/о +24.3 +15.0 56 +27 +27 жарко 1016.8 988.7 +30.7 0.9
19 14.09 штиль 0 н/о н/о +23.3 +14.4 57 +27 +27 душно 1017.4 989.2
21 14.09 ЮЗ 3 н/о н/о +21.4 +14.8 66 +24 +24 комфорт 1018.5 990.0 0.9
22 14.09 З 3 н/о н/о +20.3 +14.1 68 +23 +23 комфорт 1018.6 990.0
23 14.09 СЗ 2 н/о н/о +20.3 +13.3 64 +23 +23 комфорт 1018.5 989.9
00 15.09 СВ 1 н/о н/о +19.6 +14.3 71 +22 +22 комфорт 1018.4 989.8
01 15.09 ЮВ 2 н/о н/о +19.4 +15.0 76 +22 +22 комфорт 1018.2 989.5
02 15.09 ЮВ 2 н/о н/о +19.6 +14.7 73 +22 +22 комфорт 1017.9 989.2
03 15.09 В 2 н/о н/о +18.7 +14.6 77 +20 +20 1017.8 989.1
04 15.09 В 2 н/о н/о +18.3 +15.7 85 +19 +19 1017.8 989.0
05 15.09 В 1 н/о н/о +17.3 +15.6 90 +18 +18 1018.0 989.2
07 15.09 ЮВ 2 н/о н/о +19.1 +15.4 79 +21 +21 комфорт 1018.1 989.4
08 15.09 В 3 н/о н/о +20.1 +16.2 78 +23 +23 комфорт 1018.3 989.8
09 15.09 В 3 н/о н/о +22.8 +15.7 64 +27 +27 душно 1018.5 990.1
10 15.09 В 1 н/о н/о +25.4 +14.3 50 +28 +28 жарко 1018.5 990.5
11 15.09 З 2 н/о н/о +26.5 +14.0 46 +29 +29 жарко 1018.3 990.4
12 15.09 З 3 н/о н/о +27.0 +12.7 41 +29 +29 жарко 1017.6 989.7
13 15.09 СЗ 3 н/о н/о +28.1 +13.0 39 +30 +30 жарко 1017.0 989.2
14 15.09 З 3 н/о н/о +29.1 +12.6 36 +30 +30 жарко 1016.3 988.6
15 15.09 СЗ 4 н/о н/о +29.6 +12.1 34 +30 +30 жарко 1015.7 988.1
16 15.09 СЗ 3 н/о н/о +29.4 +12.4 35 +30 +30 жарко 1015.5 987.8
17 15.09 СЗ 5 н/о н/о +28.5 +12.6 37 +30 +30 жарко 1015.6 987.9
18 15.09 СЗ 6 н/о н/о +27.8 +11.8 37 +29 +29 жарко 1015.9 988.1 +30.3
19 15.09 З 6 н/о н/о +25.6 +12.2 43 +27 +27 жарко 1016.5 988.4
20 15.09 З 5 н/о н/о +23.3 +12.4 50 +26 +26 жарко 1017.4 989.1
21 15.09 З 4 н/о н/о +21.7 +12.4 55 +24 +24 комфорт 1018.1 989.7
22 15.09 З 4 н/о н/о +20.1 +12.3 61 +22 +22 комфорт 1018.3 989.7
23 15.09 З 4 н/о н/о +19.1 +12.8 67 +20 +20 1018.4 989.7
00 16.09 З 3 н/о н/о +18.6 +13.0 70 +19 +19 1018.4 989.7
02 16.09 З 4 н/о н/о +16.9 +14.4 85 +16 +16 1018.2 989.3
03 16.09 З 3 н/о н/о +16.0 +14.7 92 +15 +15 1018.0 989.0
04 16.09 З 4 н/о н/о +15.8 +14.4 91 +15 +15 1017.8 988.8
05 16.09 З 3 н/о н/о +15.4 +14.8 96 +15 +15 1017.9 988.9
06 16.09 З 3 н/о н/о +14.3 +14.3 100 +13 +13 1018.2 989.1 +14.3
07 16.09 ЮЗ 2 н/о н/о +14.4 +14.4 100 +14 +14 1018.6 989.5
08 16.09 З 2 н/о н/о +15.8 +15.8 100 +16 +16 1018.9 989.9
09 16.09 З 2 н/о н/о +19.0 +15.8 82 +21 +21 комфорт 1019.3 990.6
10 16.09 З 2 н/о н/о +22.4 +14.2 60 +26 +26 жарко 1018.9 990.6
12 16.09 ЮЗ 3 н/о н/о +26.7 +11.6 39 +28 +28 жарко 1017.8 989.9
13 16.09 ЮЗ 4 н/о н/о +28.0 +10.4 33 +28 +28 жарко 1017.0 989.2
14 16.09 ЮЗ 2 н/о н/о +29.0 +10.1 31 +29 +29 жарко 1016.4 988.7
15 16.09 З 4 н/о н/о +29.6 +10.8 31 +30 +30 жарко 1015.8 988.2
16 16.09 З 4 н/о н/о +29.3 +11.9 34 +30 +30 жарко 1015.2 987.6
17 16.09 СЗ 4 н/о н/о +28.7 +13.4 39 +30 +30 жарко 1015.1 987.4
18 16.09 СЗ 5 н/о н/о +26.4 +12.8 43 +28 +28 жарко 1015.5 987.6 +29.9
19 16.09 З 5 н/о н/о +23.9 +12.4 49 +26 +26 жарко 1016.1 988.0
20 16.09 З 5 н/о н/о +22.1 +12.5 54 +25 +25 комфорт 1016.8 988.5
21 16.09 З 5 н/о н/о +20.5 +11.9 58 +22 +22 комфорт 1017.5 988.9
22 16.09 З 5 н/о н/о +19.0 +15.0 78 +20 +20 1017.7 989.0
23 16.09 СЗ 3 н/о н/о +18.0 +15.8 87 +18 +18 1017.3 988.6
00 17.09 С 2 н/о н/о +17.7 +16.3 92 +18 +18 1017.1 988.3
01 17.09 СЗ 1 н/о н/о +16.9 +15.6 92 +18 +18 1017.1 988.3
02 17.09 З 1 н/о н/о +16.5 +15.4 93 +17 +17 1016.7 987.8
03 17.09 З 1 н/о н/о +16.2 +15.6 96 +17 +17 1016.2 987.3
04 17.09 З 1 н/о н/о +15.8 +15.6 99 +16 +16 1016.0 987.1
05 17.09 З 1 н/о н/о +15.6 +15.5 99 +16 +16 1015.9 987.0
06 17.09 З 2 н/о н/о +15.2 +15.2 100 +15 +15 1016.0 987.0 +15.0
07 17.09 З 3 н/о н/о +14.8 +14.8 100 +14 +14 1016.3 987.3
08 17.09 З 2 н/о н/о +16.3 +16.3 100 +16 +16 1016.3 987.4
09 17.09 СЗ 2 н/о н/о +19.5 +16.2 81 +22 +22 комфорт 1016.3 987.7
10 17.09 СЗ 2 н/о н/о +19.9 +15.8 77 +23 +23 комфорт 1016.5 988.0
11 17.09 З 2 н/о н/о +22.7 +14.8 61 +26 +26 жарко 1016.0 987.7
12 17.09 З 2 н/о н/о +25.7 +13.4 47 +28 +28 жарко 1015.2 987.2
13 17.09 ЮЗ 2 н/о н/о +28.3 +12.6 38 +30 +30 жарко 1014.2 986.5
14 17.09 З 3 н/о н/о +28.1 +11.8 36 +29 +29 жарко 1013.6 985.9
15 17.09 З 2 н/о н/о +29.6 +12.4 35 +31 +31 жарко 1012.8 985.2
16 17.09 ЮЗ 4 н/о н/о +29.5 +11.8 34 +30 +30 жарко 1012.4 984.9
17 17.09 З 4 н/о н/о +29.3 +13.2 37 +31 +31 жарко 1012.0 984.4
18 17.09 З 7 н/о н/о +24.1 +13.2 51 +26 +26 жарко 1013.4 985.3 +30.4
19 17.09 З 6 н/о н/о +21.7 +12.8 57 +24 +24 комфорт 1014.0 985.7
20 17.09 З 6 н/о н/о +20.0 +13.4 66 +22 +22 комфорт 1015.1 986.6
21 17.09 З 5 н/о н/о +18.4 +12.9 70 +18 +18 1015.7 987.0
22 17.09 З 5 н/о н/о +17.7 +13.4 76 +17 +17 1016.1 987.4
23 17.09 З 4 н/о н/о +17.2 +13.4 78 +17 +17 1015.8 987.0
00 18.09 З 4 н/о н/о +16.3 +13.8 85 +16 +16 1015.5 986.6
01 18.09 З 4 н/о н/о +15.1 +13.6 91 +14 +14 1015.5 986.6
02 18.09 З 4 н/о н/о +15.0 +14.1 94 +14 +14 1015.3 986.3
03 18.09 З 3 н/о н/о +14.5 +14.1 97 +13 +13 1015.3 986.3
04 18.09 З 2 н/о н/о +14.3 +14.0 98 +14 +14 1015.3 986.2
05 18.09 З 2 н/о н/о +13.9 +13.6 98 +13 +13 1015.5 986.4
06 18.09 З 3 н/о н/о +14.1 +13.8 98 +13 +13 1015.8 986.7 +13.7
07 18.09 З 3 н/о н/о +14.6 +14.5 99 +14 +14 1016.2 987.2
08 18.09 СЗ 3 н/о н/о +17.0 +14.7 86 +17 +17 1016.6 987.8
09 18.09 СЗ 2 н/о н/о +19.2 +14.0 72 +21 +21 комфорт 1016.7 988.1
10 18.09 СЗ 2 н/о н/о +21.4 +13.5 61 +24 +24 комфорт 1016.7 988.3
11 18.09 З 3 н/о н/о +23.3 +13.4 54 +27 +27 душно 1016.6 988.4
12 18.09 З 3 н/о н/о +23.8 +12.6 49 +26 +26 жарко 1016.5 988.4
13 18.09 З 3 н/о н/о +25.6 +12.4 44 +27 +27 жарко 1016.0 988.0
14 18.09 З 3 н/о н/о +26.3 +12.4 42 +28 +28 жарко 1015.3 987.4
15 18.09 ЮЗ 4 н/о н/о +25.9 +11.3 40 +27 +27 жарко 1015.1 987.2
16 18.09 СЗ 4 н/о н/о +26.4 +11.6 40 +28 +28 жарко 1014.9 987.0
17 18.09 СЗ 5 н/о н/о +24.9 +11.8 44 +26 +26 жарко 1015.1 987.0
18 18.09 СЗ 7 н/о н/о +22.8 +11.7 50 +25 +25 комфорт 1015.5 987.3 +27.5
19 18.09 З 6 н/о н/о +20.6 +12.2 59 +23 +23 комфорт 1016.1 987.6
20 18.09 З 6 н/о н/о +19.1 +13.2 69 +20 +20 1016.8 988.2
21 18.09 З 6 н/о н/о +18.0 +14.5 80 +17 +17 1017.3 988.6
22 18.09 З 5 н/о н/о +17.0 +15.2 89 +16 +16 1017.5 988.7
23 18.09 З 4 н/о н/о +16.4 +15.4 94 +16 +16 1017.5 988.6
00 19.09 З 3 н/о н/о +15.8 +14.9 94 +15 +15 1017.4 988.5
01 19.09 З 2 н/о н/о +15.1 +14.6 97 +15 +15 1017.6 988.6
02 19.09 З 3 н/о н/о +14.6 +14.4 99 +14 +14 1017.2 988.1
03 19.09 З 2 н/о н/о +13.8 +13.7 99 +13 +13 1017.0 987.8
04 19.09 З 2 н/о н/о +13.5 +13.5 100 +13 +13 1017.0 987.9
05 19.09 З 2 н/о н/о +13.4 +13.4 100 +13 +13 1017.0 987.8
07 19.09 СЗ 2 н/о н/о +14.1 +14.1 100 +13 +13 1017.2 988.1
08 19.09 СЗ 3 н/о н/о +15.2 +15.0 99 +14 +14 1017.5 988.5
09 19.09 СЗ 3 н/о н/о +15.6 +15.0 96 +15 +15 1018.0 989.0
10 19.09 СЗ 2 н/о н/о +17.6 +15.1 85 +18 +18 1017.7 989.0
11 19.09 З 2 н/о н/о +21.2 +15.0 68 +24 +24 комфорт 1017.2 988.7
12 19.09 З 3 н/о н/о +23.5 +14.3 56 +26 +26 жарко 1016.4 988.2
13 19.09 З 3 н/о н/о +25.1 +13.6 49 +27 +27 жарко 1015.6 987.6
14 19.09 ЮЗ 4 н/о н/о +24.1 +13.4 51 +26 +26 жарко 1015.0 986.9
15 19.09 З 3 н/о н/о +25.2 +13.0 47 +27 +27 жарко 1014.4 986.4
16 19.09 З 5 н/о н/о +24.6 +13.1 49 +27 +27 жарко 1014.4 986.3
17 19.09 З 4 н/о н/о +23.9 +12.8 50 +26 +26 жарко 1014.3 986.2
18 19.09 З 5 н/о н/о +22.5 +14.1 59 +26 +26 жарко 1014.3 986.1 +26.3
19 19.09 СЗ 6 н/о н/о +20.2 +14.1 68 +22 +22 комфорт 1014.7 986.2
20 19.09 З 6 н/о н/о +19.1 +14.3 74 +20 +20 1015.7 987.1
21 19.09 З 5 н/о н/о +18.2 +14.5 79 +18 +18 1016.1 987.4
22 19.09 З 4 н/о н/о +17.0 +14.6 86 +17 +17 1016.3 987.5
23 19.09 З 3 н/о н/о +16.4 +14.9 91 +16 +16 1016.0 987.1
00 20.09 З 4 н/о н/о +16.1 +15.0 93 +15 +15 1015.9 987.0
01 20.09 З 3 н/о н/о +15.2 +14.6 96 +14 +14 1015.7 986.7
02 20.09 З 3 н/о н/о +15.4 +14.9 97 +15 +15 1015.1 986.2
03 20.09 З 2 н/о н/о +14.7 +14.4 98 +14 +14 1015.1 986.1
04 20.09 З 2 н/о н/о +14.4 +14.4 100 +14 +14 1014.6 985.6
05 20.09 З 2 н/о н/о +14.1 +14.1 100 +13 +13 1014.6 985.6
06 20.09 З 2 н/о н/о +13.8 +13.8 100 +13 +13 1014.7 985.6 +13.7
07 20.09 З 1 н/о н/о +14.0 +14.0 100 +14 +14 1014.8 985.7
08 20.09 СЗ 3 н/о н/о +17.0 +15.0 88 +17 +17 1015.1 986.4
09 20.09 СЗ 2 н/о н/о +17.9 +15.3 85 +18 +18 1015.4 986.7
10 20.09 ЮЗ 1 н/о н/о +20.3 +14.1 68 +24 +24 комфорт 1014.9 986.5
11 20.09 ЮВ 3 н/о н/о +21.9 +14.3 62 +25 +25 комфорт 1014.2 986.0
12 20.09 Ю 2 н/о н/о +22.9 +13.7 56 +26 +26 жарко 1013.8 985.6
13 20.09 Ю 3 н/о н/о +21.2 +15.0 68 +24 +24 комфорт 1013.6 985.3 0.4
14 20.09 ЮЗ 3 н/о н/о +22.5 +14.9 62 +26 +26 жарко 1013.4 985.2
15 20.09 Ю 3 н/о н/о +24.7 +13.9 51 +27 +27 жарко 1012.8 984.8

 

Местоположение метеостанции Бежа (Португалия): широта 38.02 долгота -7.87 высота над уровнем моря 247 м.

В архиве по умолчанию представлена погода в Беже за последнюю неделю. Архивные данные за месяц целиком и за предыдущие месяцы, начиная с января 2011 года, Вы можете получить, выбрав интересующий диапазон дат из раскрывающегося списка и нажав кнопку "Ввод!".


*Определитесь, кто Вы:
робот инопланетянин человек

Внимание! Время в таблицах - всемирное. Для получения местного времени необходимо прибавить поправку, которая равна 0 ч.

Смотрите также архив погоды в соседних городах и на ближайших метеорологических станциях:

Погода в Бежа аэропорту (Португалия) (7 км)
Погода в Эворе (Португалия) (57 км)
Погода в Синише (Португалия) (88 км)
Погода в Айямонте - Исла Канель (Испания) (102 км)
Погода в Херес-де-лос-Кабалье (Испания) (102 км)
Погода в Алахар - Кабезо Молин (Испания) (107 км)
Погода в Фару (Португалия) (112 км)
Погода в Уэльве (Испания) (117 км)
Погода в Монтижу (Португалия) (126 км)
Погода в Бадахосе (Испания) (132 км)

Пояснения к столбцам:

Ветер - указаны скорость ветра в м/с - средняя за 10 мин, порывы в срок и между сроками (в фигурных скобках) и направление, откуда дует ветер: С - северный, СВ - северо-восточный, В - восточный, ЮВ - юго-восточный, Ю - южный, ЮЗ - юго-западный, З - западный, СЗ - северо-западный.
Видимость - горизонтальная дальность видимости в метрах или километрах. При видимости от 1 до 10 км при отсутствии осадков обычно наблюдается дымка, при ухудшении видимости до 1 км и менее - туман. В сухую погоду видимость может ухудшаться дымом, пылью или мглою.
Явления - указаны атмосферные явления, наблюдавшиеся в срок или в последний час перед сроком; фигурными скобками обозначены явления, наблюдавшиеся между сроками (за 1-3 часа до срока); квадратными скобками обозначены град или гололедные отложения с указанием их диаметра в мм.
Облачность - указаны через наклонную черту общая и нижняя облачность в баллах и высота нижней границы облаков в метрах; квадратными скобками обозначены формы облаков: Ci - перистые, Cs - перисто-слоистые, Cc - перисто-кучевые, Ac - высококучевые, As - высокослоистые, Sc - слоисто-кучевые, Ns - слоисто-дождевые, Cu - кучевые, Cb - кучево-дождевые. Подробнее классификацию облаков см. в Атласе облаков (PDF).
T - Температура воздуха - температура, измеренная на высоте 2 м над землей.
Td - Температура точки росы - температура, при понижении до которой содержащийся в воздухе водяной пар достигнет насыщения.
f - Относительная влажность воздуха - влажноcть воздуха, измеренная на высоте 2 м над землей.
Te - Эффективная температура - температура, которую ощущает одетый по сезону человек в тени. Характеристика душности погоды. При расчете учитывается влияние влажности воздуха и скорости ветра на теплоощущения человека.
Tes - Эффективная температура на солнце - температура, которую ощущает человек, с поправкой на солнечный нагрев. Характеристика знойности погоды. Зависит от высоты солнца над горизонтом, облачности и скорости ветра. Ночью, в пасмурную погоду, а также при ветре 12 м/с и более поправка равна нулю.
P - Атмосферное давление - приведенное к уровню моря атмосферное давление.
Po - Атмосферное давление - измеренное на уровне метеостанции атмосферное давление.
Tmin - Минимальная температура - минимум температуры воздуха на высоте 2 м над землей.
Tmax - Максимальная температура - максимум температуры воздуха на высоте 2 м над землей.
R - Количество осадков - Количество выпавших осадков за период времени, мм. При наведении курсора мыши на число - период времени, за который выпало указанное количество осадков.
R24 - Количество осадков - Количество выпавших осадков за 24 часа, мм.
S - Снежный покров - Высота снежного покрова, см. При наведении курсора мыши на число - состояние снежного покрова и степень покрытия местности в баллах.